Terug naar catalogus

OPS 9326

IDSCS 13

ActiefMilitairMEO
NORAD 2653·PAYLOAD·🇺🇸 United States

Gelanceerd Jan 18, 1967 vanaf Cape Canaveral Space Force Station

Loading…

Volgende Passages (komende 24 uur)

TLE

VersSource: Space-Track

Epoch: Sep 13, 2026, 06:33 UTC

1 02653U 67003F   26256.27320282 -.00000090  00000-0  00000-0 0  9999
2 02653   8.3502  45.3742 0044933  67.9464 292.6277  1.07748846133647

Volg OPS 9326 in realtime met AllMySat

Download on the App Store